Henry Tift Myers AP, Tifton,, GA

12:18 AM EST on December 16, 2019 (GMT -0500)
Myers

Weather History for KTMA - October, 2019

Change the Weather History Date:

Wednesday, October 2, 2019

  Actual Average Record
Temperature  
Mean Temperature - -  
Max Temperature - 82 °F 86 °F (2016)
Min Temperature - 58 °F 54 °F (2016)
Moisture  
Dew Point -    
Average Humidity    
Maximum Humidity    
Minimum Humidity    
Precipitation  
Precipitation 0.00 in - - ()
Sea Level Pressure  
Sea Level Pressure 30.01 in    
Wind  
Wind Speed 2 mph ()    
Max Wind Speed 12 mph    
Max Gust Speed 17 mph    
Visibility 9.3 miles    
Events      
Averages and records for this station are not official NWS values.
T = Trace of Precipitation, MM = Missing Value Source: Averaged Metar Reports

Daily Weather History Graph

Daily Weather History Graph

Search for Another Location

Airport or City:

Astronomy

Oct. 02, 2019 Rise Set
Actual Time 7:28 AM EDT 7:17 PM EDT
Civil Twilight 7:03 AM EDT 7:42 PM EDT
Nautical Twilight 6:35 AM EDT 8:10 PM EDT
Astronomical Twilight 6:07 AM EDT 8:38 PM EDT
Moon 11:37 AM EDT (10/2) 10:27 PM EDT (10/2)
Length of Visible Light 12h 38m
Length of Day
11h 49m
Waxing Crescent, 20% of the Moon is Illuminated
Oct 2
Waxing Crescent
Oct 5
First Quarter
Oct 13
Full
Oct 21
Last Quarter
Oct 27
New

Hourly Weather History & Observations

Time (EDT) Temp. Dew Point Humidity Pressure Visibility Wind Dir Wind Speed Gust Speed Precip Events Conditions
12:15 AM - - N/A% 30.05 in 10.0 mi SE 3.5 mph - N/A   Clear
12:35 AM - - N/A% 30.05 in 10.0 mi Calm Calm - N/A   Clear
12:55 AM - - N/A% 30.04 in 10.0 mi Calm Calm - N/A   Clear
1:15 AM - - N/A% 30.04 in 10.0 mi Calm Calm - N/A   Clear
1:35 AM - - N/A% 30.04 in 10.0 mi Calm Calm - N/A   Clear
1:55 AM - - N/A% 30.03 in 10.0 mi Calm Calm - N/A   Clear
2:15 AM - - N/A% 30.03 in 10.0 mi Calm Calm - N/A   Clear
2:35 AM - - N/A% 30.03 in 10.0 mi Calm Calm - N/A   Clear
2:55 AM - - N/A% 30.02 in 10.0 mi Calm Calm - N/A   Clear
3:15 AM - - N/A% 30.02 in 10.0 mi Calm Calm - N/A   Clear
3:35 AM - - N/A% 30.01 in 10.0 mi Calm Calm - N/A   Clear
3:55 AM - - N/A% 30.01 in 10.0 mi Calm Calm - N/A   Clear
4:15 AM - - N/A% 30.02 in 10.0 mi Calm Calm - N/A   Clear
4:35 AM - - N/A% 30.01 in 10.0 mi Calm Calm - N/A   Clear
4:55 AM - - N/A% 30.02 in 7.0 mi Calm Calm - N/A   Clear
5:15 AM - - N/A% 30.02 in 5.0 mi Calm Calm - N/A   Haze
5:35 AM - - N/A% 30.02 in 7.0 mi Calm Calm - N/A   Clear
5:55 AM - - N/A% 30.03 in 7.0 mi Calm Calm - N/A   Clear
6:15 AM - - N/A% 30.04 in 5.0 mi Calm Calm - N/A   Haze
6:35 AM - - N/A% 30.04 in 5.0 mi Calm Calm - N/A   Haze
6:55 AM - - N/A% 30.04 in 5.0 mi Calm Calm - N/A   Haze
7:15 AM - - N/A% 30.05 in 5.0 mi Calm Calm - N/A   Haze
7:35 AM - - N/A% 30.06 in 5.0 mi Calm Calm - N/A   Haze
7:55 AM - - N/A% 30.06 in 5.0 mi Calm Calm - N/A   Haze
8:15 AM - - N/A% 30.06 in 7.0 mi Calm Calm - N/A   Clear
8:35 AM - - N/A% 30.06 in 10.0 mi Calm Calm - N/A   Clear
8:55 AM - - N/A% 30.07 in 10.0 mi NNE 3.5 mph - N/A   Clear
9:15 AM - - N/A% 30.07 in 10.0 mi NE 3.5 mph - N/A   Clear
9:35 AM - - N/A% 30.07 in 10.0 mi ENE 3.5 mph - N/A   Clear
9:55 AM - - N/A% 30.07 in 10.0 mi Calm Calm - N/A   Clear
10:15 AM - - N/A% 30.07 in 10.0 mi ENE 3.5 mph - N/A   Clear
10:35 AM - - N/A% 30.07 in 10.0 mi Calm Calm - N/A   Clear
10:55 AM - - N/A% 30.07 in 10.0 mi Calm Calm - N/A   Clear
11:15 AM - - N/A% 30.07 in 10.0 mi Calm Calm - N/A   Clear
11:35 AM - - N/A% 30.07 in 10.0 mi East 4.6 mph - N/A   Clear
11:55 AM - - N/A% 30.06 in 10.0 mi East 5.8 mph - N/A   Clear
12:15 PM - - N/A% 30.05 in 10.0 mi NNE 9.2 mph - N/A   Scattered Clouds
12:35 PM - - N/A% 30.04 in 10.0 mi NE 5.8 mph - N/A   Scattered Clouds
12:55 PM - - N/A% 30.04 in 10.0 mi East 6.9 mph - N/A   Clear
1:15 PM - - N/A% 30.03 in 10.0 mi ENE 11.5 mph - N/A   Scattered Clouds
1:35 PM - - N/A% 30.02 in 10.0 mi NE 4.6 mph - N/A   Scattered Clouds
1:55 PM - - N/A% 30.01 in 10.0 mi NNE 6.9 mph - N/A   Mostly Cloudy
2:15 PM - - N/A% 30.00 in 10.0 mi ENE 10.4 mph - N/A   Scattered Clouds
2:35 PM - - N/A% 29.99 in 10.0 mi NE 9.2 mph - N/A   Mostly Cloudy
2:55 PM - - N/A% 29.98 in 10.0 mi NE 6.9 mph - N/A   Mostly Cloudy
3:15 PM - - N/A% 29.98 in 10.0 mi East 6.9 mph - N/A   Scattered Clouds
3:35 PM - - N/A% 29.98 in 10.0 mi ESE 6.9 mph - N/A   Mostly Cloudy
3:55 PM - - N/A% 29.97 in 10.0 mi ESE 6.9 mph - N/A   Scattered Clouds
4:15 PM - - N/A% 29.96 in 10.0 mi East 5.8 mph 17.3 mph N/A   Scattered Clouds
4:35 PM - - N/A% 29.96 in 10.0 mi ENE 8.1 mph - N/A   Mostly Cloudy
4:55 PM - - N/A% 29.95 in 10.0 mi NNE 5.8 mph - N/A   Scattered Clouds
5:15 PM - - N/A% 29.95 in 10.0 mi ENE 6.9 mph - N/A   Scattered Clouds
5:35 PM - - N/A% 29.95 in 10.0 mi NE 8.1 mph - N/A   Scattered Clouds
5:55 PM - - N/A% 29.95 in 10.0 mi East 3.5 mph - N/A   Scattered Clouds
6:15 PM - - N/A% 29.95 in 10.0 mi East 3.5 mph - N/A   Clear
6:35 PM - - N/A% 29.96 in 10.0 mi ENE 4.6 mph - N/A   Clear
6:55 PM - - N/A% 29.96 in 10.0 mi ENE 3.5 mph - N/A   Clear
7:15 PM - - N/A% 29.96 in 10.0 mi Calm Calm - N/A   Clear
7:35 PM - - N/A% 29.96 in 10.0 mi Calm Calm - N/A   Clear
7:55 PM - - N/A% 29.96 in 10.0 mi Calm Calm - N/A   Clear
8:15 PM - - N/A% 29.96 in 10.0 mi Calm Calm - N/A   Clear
8:35 PM - - N/A% 29.97 in 10.0 mi Calm Calm - N/A   Clear
8:55 PM - - N/A% 29.98 in 10.0 mi Calm Calm - N/A   Clear
9:15 PM - - N/A% 29.98 in 10.0 mi Calm Calm - N/A   Clear
9:35 PM - - N/A% 29.99 in 10.0 mi Calm Calm - N/A   Clear
9:55 PM - - N/A% 29.99 in 10.0 mi Calm Calm - N/A   Clear
10:15 PM - - N/A% 30.00 in 10.0 mi SE 4.6 mph - N/A   Clear
10:35 PM - - N/A% 30.01 in 10.0 mi Calm Calm - N/A   Clear
10:55 PM - - N/A% 30.01 in 10.0 mi Calm Calm - N/A   Clear
11:15 PM - - N/A% 30.01 in 10.0 mi SE 3.5 mph - N/A   Clear
11:35 PM - - N/A% 30.01 in 10.0 mi SE 3.5 mph - N/A   Clear
11:55 PM - - N/A% 30.01 in 10.0 mi SE 3.5 mph - N/A   Clear